DW0000 Weather Reports


Display with metric or nautical units.
time (UTC)temp
F
wind
direction
speed
MPH
gust
MPH
rain 1hr
in
rain 24hr
in
rain mn
in
humidity
%
barometer
mb
20260903222507 60 316 30.0 39.0 0.00 0.03 0.00 88 1013.3
20260903222005 60 323 29.0 44.0 0.00 0.03 0.00 88 1013.3
20260903220505 60 326 25.0 40.0 0.00 0.03 0.00 89 1013.7
20260903214005 59 323 26.0 39.0 0.00 0.03 0.00 90 1014.0
20260903213006 59 321 26.0 33.0 0.00 0.03 0.00 90 1014.0
20260903212504 59 310 27.0 38.0 0.00 0.03 0.00 90 1013.8
20260903211507 59 320 32.0 45.0 0.00 0.03 0.00 90 1014.2
20260903211005 59 317 37.0 46.0 0.00 0.03 0.00 89 1014.0
20260903210506 58 317 28.0 36.0 0.00 0.03 0.00 89 1014.2
20260903210005 58 317 25.0 37.0 0.00 0.03 0.00 89 1014.2
20260903205507 58 323 26.0 35.0 0.00 0.03 0.00 89 1014.3
20260903203506 58 316 28.0 45.0 0.00 0.03 0.00 89 1014.5
20260903202505 58 304 30.0 37.0 0.00 0.03 0.00 89 1014.5
20260903202004 58 312 29.0 37.0 0.00 0.03 0.00 89 1014.4
20260903201506 58 320 32.0 40.0 0.00 0.03 0.00 88 1014.6
20260903200505 58 319 32.0 45.0 0.00 0.03 0.00 88 1014.3
20260903195504 58 314 28.0 38.0 0.00 0.03 0.00 90 1014.5
20260903193506 57 312 30.0 41.0 0.00 0.03 0.00 93 1014.3
20260903192005 57 307 31.0 38.0 0.00 0.03 0.00 94 1014.3
20260903191006 56 304 25.0 35.0 0.00 0.03 0.00 94 1014.5
20260903185505 56 316 29.0 40.0 0.00 0.03 0.00 94 1014.6
20260903183006 56 311 24.0 39.0 0.00 0.03 0.00 94 1014.8
20260903182004 57 306 26.0 35.0 0.00 0.03 0.00 94 1014.8
20260903181504 57 312 27.0 33.0 0.00 0.03 0.00 94 1014.9
20260903175505 57 311 28.0 33.0 0.00 0.03 0.00 95 1015.1
20260903175007 57 316 26.0 38.0 0.00 0.03 0.00 95 1015.0
20260903174505 57 319 26.0 40.0 0.00 0.03 0.00 95 1015.0
20260903174004 57 317 23.0 40.0 0.00 0.03 0.00 95 1015.0
20260903171506 57 311 21.0 35.0 0.00 0.03 0.00 95 1015.2
20260903171005 57 308 28.0 37.0 0.00 0.03 0.00 95 1015.2
20260903170505 57 321 26.0 35.0 0.00 0.03 0.00 95 1015.0
20260903165506 57 311 27.0 32.0 0.00 0.03 0.00 95 1015.0
20260903164507 57 321 23.0 35.0 0.00 0.05 0.00 96 1015.3
20260903164008 57 316 26.0 36.0 0.00 0.05 0.00 96 1015.2
20260903162506 57 318 26.0 38.0 0.00 0.06 0.00 96 1015.2
20260903160508 57 312 26.0 36.0 0.00 0.06 0.00 96 1015.1
20260903155507 58 317 26.0 33.0 0.00 0.06 0.00 96 1015.3
20260903155007 58 319 25.0 43.0 0.00 0.07 0.00 96 1015.5
20260903152006 58 313 18.0 29.0 0.00 0.18 0.00 95 1015.7
20260903151506 57 321 25.0 38.0 0.00 0.18 0.00 95 1015.6
20260903151006 57 323 22.0 36.0 0.00 0.18 0.00 95 1015.7
20260903150507 57 320 25.0 43.0 0.00 0.18 0.00 95 1015.7
20260903144508 57 322 22.0 30.0 0.00 0.18 0.00 95 1015.8
20260903142506 57 311 24.0 31.0 0.00 0.18 0.00 95 1016.3
20260903142007 58 308 20.0 30.0 0.00 0.18 0.00 96 1016.4
20260903140506 58 328 21.0 31.0 0.00 0.18 0.00 95 1016.5
20260903140007 58 316 22.0 32.0 0.00 0.18 0.00 95 1016.5
20260903134506 58 306 22.0 36.0 0.00 0.18 0.00 95 1016.6
20260903134008 58 314 22.0 33.0 0.00 0.18 0.00 96 1016.9
20260903133506 58 316 24.0 32.0 0.00 0.18 0.00 96 1016.6
20260903132008 58 320 26.0 37.0 0.00 0.18 0.00 96 1016.6
20260903131506 58 316 25.0 33.0 0.00 0.18 0.00 96 1016.6
20260903130507 58 320 25.0 32.0 0.00 0.18 0.00 96 1016.6
20260903130006 58 310 21.0 29.0 0.00 0.18 0.00 96 1016.9
20260903125006 58 320 24.0 32.0 0.00 0.18 0.00 96 1016.8
20260903123006 58 315 22.0 43.0 0.00 0.18 0.00 95 1016.8
20260903121506 58 311 25.0 36.0 0.00 0.18 0.00 95 1016.9
20260903121007 58 314 25.0 31.0 0.00 0.18 0.00 96 1016.8
20260903120507 58 319 26.0 32.0 0.00 0.18 0.00 96 1016.7
20260903115006 58 316 23.0 30.0 0.00 0.18 0.18 96 1016.9
20260903113506 58 323 20.0 29.0 0.00 0.18 0.18 96 1016.9
20260903113006 58 310 18.0 28.0 0.00 0.18 0.18 96 1016.8
20260903112507 58 312 18.0 26.0 0.00 0.18 0.18 96 1016.9
20260903111506 58 316 25.0 31.0 0.00 0.18 0.18 97 1017.0
20260903111008 58 319 23.0 26.0 0.00 0.18 0.18 97 1017.1
20260903110506 58 320 21.0 29.0 0.00 0.18 0.18 97 1017.1
20260903105006 58 317 18.0 29.0 0.00 0.18 0.18 96 1017.1
20260903104007 58 311 20.0 29.0 0.00 0.18 0.18 96 1017.4
20260903102505 58 318 21.0 31.0 0.00 0.18 0.18 97 1017.2
20260903100506 58 322 19.0 29.0 0.00 0.18 0.18 97 1017.5
20260903100008 58 322 22.0 30.0 0.00 0.18 0.18 97 1017.5
20260903095006 58 319 17.0 29.0 0.00 0.18 0.18 97 1017.5
20260903094007 58 316 21.0 30.0 0.00 0.18 0.18 97 1017.6
20260903093506 58 314 20.0 28.0 0.00 0.18 0.18 97 1017.4
20260903092005 58 309 22.0 30.0 0.00 0.18 0.18 97 1017.2
20260903091506 58 309 17.0 28.0 0.00 0.19 0.18 97 1017.4
20260903091007 58 303 18.0 30.0 0.00 0.19 0.18 97 1017.2
20260903090506 58 309 22.0 30.0 0.00 0.19 0.18 97 1017.2
20260903090006 58 314 22.0 29.0 0.00 0.19 0.18 97 1017.3
20260903085007 58 312 13.0 25.0 0.00 0.19 0.18 97 1017.5
20260903084505 58 307 20.0 26.0 0.00 0.19 0.18 97 1017.3
20260903082505 58 309 21.0 30.0 0.00 0.20 0.18 97 1017.3
20260903081006 58 313 21.0 26.0 0.00 0.20 0.18 97 1017.3
20260903080007 58 314 23.0 29.0 0.00 0.20 0.18 97 1017.3
20260903075506 58 311 20.0 29.0 0.00 0.20 0.18 97 1017.2
20260903075006 58 314 22.0 29.0 0.00 0.20 0.18 97 1017.1
20260903074506 58 311 21.0 29.0 0.00 0.20 0.18 97 1017.3
20260903074007 57 312 21.0 26.0 0.00 0.20 0.18 97 1017.1
20260903073507 58 313 18.0 28.0 0.00 0.20 0.18 97 1017.1
20260903073006 58 320 21.0 25.0 0.00 0.20 0.18 97 1017.0
20260903072505 58 313 20.0 25.0 0.00 0.20 0.18 97 1017.1
20260903072006 58 309 21.0 30.0 0.00 0.20 0.18 97 1017.2
20260903071507 58 313 23.0 30.0 0.00 0.20 0.18 97 1016.8
20260903071006 58 310 22.0 30.0 0.00 0.20 0.18 97 1016.7
20260903065006 57 320 22.0 28.0 0.00 0.20 0.18 96 1016.8
20260903062006 57 319 23.0 31.0 0.00 0.20 0.18 95 1016.8
20260903061006 57 312 25.0 32.0 0.02 0.20 0.18 95 1016.7
20260903060506 57 320 21.0 31.0 0.02 0.20 0.18 94 1016.7
20260903055508 57 312 17.0 25.0 0.03 0.20 0.18 94 1016.8
20260903055005 57 259 10.0 28.0 0.03 0.20 0.18 94 1016.6
20260903054505 57 317 23.0 36.0 0.03 0.20 0.18 94 1016.9
20260903054007 57 320 29.0 40.0 0.03 0.20 0.18 93 1016.4
20260903052007 57 322 23.0 30.0 0.02 0.20 0.17 90 1016.7
20260903051005 57 319 20.0 31.0 0.01 0.19 0.16 88 1016.7
20260903050005 58 303 21.0 35.0 0.00 0.17 0.15 85 1016.7
20260903045005 58 318 21.0 28.0 0.00 0.17 0.15 83 1016.7
20260903044007 58 320 24.0 32.0 0.00 0.17 0.15 82 1016.8
20260903043006 59 310 18.0 29.0 0.00 0.17 0.15 82 1016.8
20260903042507 59 321 24.0 33.0 0.00 0.17 0.15 81 1016.7
20260903042006 59 314 22.0 28.0 0.00 0.17 0.15 81 1017.0
20260903041506 59 319 20.0 32.0 0.00 0.17 0.15 81 1016.9
20260903040505 58 316 23.0 33.0 0.00 0.17 0.15 81 1016.9
20260903040008 58 314 23.0 31.0 0.00 0.17 0.15 81 1017.0
20260903034505 59 314 24.0 32.0 0.00 0.17 0.15 80 1017.1
20260903033007 59 307 19.0 30.0 0.00 0.17 0.15 80 1017.4
20260903032505 60 304 18.0 35.0 0.00 0.17 0.15 79 1017.3
20260903031008 60 304 20.0 32.0 0.00 0.17 0.15 79 1017.3
20260903025007 60 313 24.0 32.0 0.00 0.17 0.15 79 1017.6
20260903024505 60 317 21.0 29.0 0.00 0.17 0.15 79 1017.4
20260903024005 60 317 24.0 31.0 0.00 0.17 0.15 78 1017.6
20260903023007 61 305 20.0 29.0 0.00 0.17 0.15 78 1017.4
20260903022505 61 319 21.0 29.0 0.00 0.17 0.15 79 1017.7
20260903021506 62 311 18.0 29.0 0.00 0.17 0.15 81 1017.6
20260903020505 62 312 19.0 29.0 0.00 0.17 0.15 81 1017.7
20260903020005 62 309 17.0 28.0 0.00 0.17 0.15 79 1018.0
20260903015006 63 306 14.0 26.0 0.00 0.17 0.15 79 1018.0
20260903014505 63 309 19.0 25.0 0.00 0.17 0.15 78 1018.1
20260903014005 64 310 18.0 24.0 0.00 0.17 0.15 78 1018.1
20260903013506 64 317 21.0 29.0 0.00 0.17 0.15 77 1018.2
20260903013006 64 302 13.0 26.0 0.00 0.17 0.15 77 1018.2
20260903012007 65 298 17.0 24.0 0.00 0.17 0.15 78 1018.5
20260903011505 65 304 13.0 24.0 0.00 0.17 0.15 77 1018.4
20260903010506 65 280 11.0 20.0 0.00 0.17 0.15 77 1018.6
20260903005505 65 288 12.0 23.0 0.00 0.17 0.15 78 1018.6
20260903004505 65 286 12.0 23.0 0.00 0.17 0.15 79 1018.9
20260903004005 65 307 11.0 22.0 0.00 0.17 0.15 80 1019.1
20260903003506 65 289 10.0 21.0 0.00 0.17 0.15 79 1019.0
20260903003005 65 308 12.0 20.0 0.00 0.17 0.15 80 1019.1
20260903002505 65 272 10.0 23.0 0.00 0.17 0.15 79 1019.2
20260903002004 65 315 18.0 25.0 0.00 0.17 0.15 79 1019.2
20260903001005 65 315 20.0 24.0 0.00 0.17 0.15 81 1019.2
20260903000006 64 319 21.0 29.0 0.00 0.17 0.15 79 1019.2
20260902234505 64 318 16.0 23.0 0.00 0.17 0.15 81 1019.3
20260902234006 63 323 16.0 24.0 0.00 0.17 0.15 81 1019.4
20260902233505 63 315 14.0 22.0 0.00 0.17 0.15 82 1019.6
20260902232506 63 308 17.0 22.0 0.00 0.17 0.15 81 1019.4
20260902231505 63 304 14.0 24.0 0.00 0.17 0.15 82 1019.2
20260902231006 63 305 14.0 23.0 0.00 0.17 0.15 82 1019.3
20260902230005 63 308 18.0 25.0 0.00 0.17 0.15 83 1019.5
20260902225506 63 306 16.0 26.0 0.00 0.17 0.15 83 1019.3
20260902225005 63 309 15.0 25.0 0.00 0.17 0.15 84 1019.3
20260902224504 63 309 19.0 24.0 0.00 0.17 0.15 84 1019.2
20260902223506 62 306 12.0 21.0 0.00 0.17 0.15 86 1019.2
20260902223005 62 265 8.0 22.0 0.00 0.17 0.15 85 1019.4